Flag for France Weather past 2 weeks in Paris, France

45 °F


Feels Like: 40 °F
Forecast: 48 / 54 °F
Wind: 9 mph from West

Location: Villacoublay

Current Time: Nov 28, 2015 at 12:37:32 PM

Latest Report: Nov 28, 2015 at 12:00 PM

Visibility: 10 mi

Pressure: 30.12 "Hg

Humidity: 76%

Dew point: 37 °F

Location of ParisLocation

Historic Weather in Paris — Graph


Paris temperature yesterday

Maximum temperature yesterday: 43 °F (at 11:30 PM)
Minimum temperature yesterday: 34 °F (at 2:00 AM)
Average temperature yesterday: 38 °F

Past Weeks' High & Low Weather Summary

High61 °F (Nov 15, 12:30 PM)100% (Nov 16, 11:30 PM)30.48 "Hg (Nov 16, 11:30 PM)
Low32 °F (Nov 23, 4:30 AM)51% (Nov 13, 4:00 PM)29.56 "Hg (Nov 21, 4:00 AM)
Average47 °F87%30.04 "Hg
* Reported Nov 13 11:00 AM — Nov 28 11:30 AM, Paris, Weather by CustomWeather, © 2015

Note: Actual official high and low records may vary slightly from our data, if they occured in-between our weather recording intervals... More about our weather records


Paris weather history for previous 24 hours

Time TempWeatherWind HumidityBarometerVisibility
11:30 AM
Sat, Nov 28
45 °FSunny.8 mph76%30.12 "Hg10 mi
11:00 AM43 °FPassing clouds.7 mph76%30.12 "HgN/A
10:30 AM41 °FSunny.8 mph81%30.12 "Hg10 mi
10:00 AM39 °FPassing clouds.7 mph87%30.12 "HgN/A
9:30 AM37 °FSunny.6 mph93%30.09 "Hg10 mi
8:30 AM36 °FPassing clouds.5 mph100%30.09 "HgN/A
7:30 AM39 °FPassing clouds.9 mph87%30.07 "HgN/A
7:00 AM39 °FPassing clouds.7 mph93%30.04 "HgN/A
6:30 AM39 °FPassing clouds.7 mph93%30.01 "HgN/A
5:30 AM41 °FPartly cloudy.8 mph93%29.98 "HgN/A
5:00 AM43 °FPassing clouds.12 mph87%29.95 "HgN/A
4:30 AM43 °FPassing clouds.12 mph93%29.95 "HgN/A
4:00 AM45 °FPassing clouds.14 mph87%29.92 "HgN/A
3:30 AM45 °FPassing clouds.13 mph93%29.92 "HgN/A
3:00 AM45 °FPassing clouds.12 mph93%29.89 "HgN/A
2:30 AM45 °FPassing clouds.12 mph100%29.89 "HgN/A
1:00 AM43 °FDrizzle. Fog.N/A100%29.89 "Hg3 mi
12:30 AM43 °FDrizzle. Fog.9 mph100%29.86 "Hg2 mi
12:00 AM43 °FDrizzle. Fog.8 mph100%29.86 "Hg2 mi
11:30 PM
Fri, Nov 27
43 °FLow clouds.10 mph100%29.86 "Hg4 mi
11:00 PM41 °FFog.8 mph100%29.86 "Hg3 mi
10:30 PM41 °FLow clouds.10 mph100%29.86 "Hg4 mi
10:00 PM41 °FFog.10 mph100%29.89 "Hg3 mi
9:30 PM41 °FDrizzle. Fog.9 mph100%29.89 "Hg2 mi
9:00 PM41 °FFog.9 mph93%29.89 "Hg3 mi
8:30 PM41 °FFog.8 mph93%29.92 "Hg2 mi
8:00 PM41 °FFog.10 mph93%29.92 "Hg3 mi
7:30 PM41 °FFog.9 mph93%29.92 "Hg3 mi
7:00 PM41 °FFog.9 mph93%29.92 "Hg3 mi
6:30 PM41 °FFog.N/A93%29.95 "Hg3 mi
6:00 PM41 °FFog.9 mph93%29.95 "Hg3 mi
5:30 PM39 °FLow clouds.7 mph100%29.95 "Hg4 mi
5:00 PM39 °FFog.8 mph100%29.95 "Hg3 mi
4:30 PM39 °FFog.8 mph93%29.98 "Hg3 mi
4:00 PM39 °FLow clouds.7 mph100%29.98 "Hg5 mi
3:30 PM39 °FLow clouds.8 mph100%29.98 "HgN/A
3:00 PM41 °FPartly sunny.7 mph93%29.98 "HgN/A
2:30 PM39 °FPartly sunny.7 mph100%30.01 "HgN/A
2:00 PM39 °FPartly sunny.8 mph100%30.01 "HgN/A
1:30 PM39 °FPartly sunny.9 mph100%30.04 "Hg5 mi
1:00 PM41 °FMostly cloudy.10 mph100%30.04 "Hg5 mi
12:30 PM37 °FFog.7 mph100%30.07 "Hg1 mi
12:00 PM37 °FFog.7 mph100%30.07 "Hg1 mi
Weather by CustomWeather, © 2015

See weather overviewHow to use our weather pages